This is the latest recevied weather packets stored in our database for station/object AE6DC-5. If no packets are shown the sender has not sent any weather packets the latest 10 day(s).
| Time | Temp. | Humidity | Pressure | Rain* | Wind** | Luminosity | Snow |
|---|---|---|---|---|---|---|---|
| 1777595908 | 12.78° C | 88% | 1015.2 hPa | 0 mm | - | 144 W/m² | - |
| 1777593742 | 12.78° C | 88% | 1015 hPa | 0 mm | - | 218 W/m² | - |
| 1777592320 | 12.78° C | 88% | 1015 hPa | 0 mm | - | 314 W/m² | - |
| 1777591960 | 12.78° C | 88% | 1014.8 hPa | 0 mm | - | 488 W/m² | - |
| 1777584016 | 12.78° C | 88% | 1015.8 hPa | 0 mm | - | 465 W/m² | - |
| 1777580780 | 12.22° C | 88% | 1016 hPa | 0 mm | - | 452 W/m² | - |
| 1777575379 | 12.22° C | 88% | 1015.9 hPa | 0 mm | - | 617 W/m² | - |
| 1777570340 | 12.22° C | 89% | 1016.1 hPa | 0 mm | - | 332 W/m² | - |
| 1777569298 | 12.22° C | 89% | 1016.3 hPa | 0 mm | - | 227 W/m² | - |
| 1777568897 | 12.22° C | 89% | 1016.3 hPa | 0 mm | - | 257 W/m² | - |
| 1777568558 | 12.22° C | 89% | 1016.2 hPa | 0 mm | - | 231 W/m² | - |
| 1777566021 | 12.22° C | 89% | 1016.1 hPa | 0 mm | - | 176 W/m² | - |
| 1777565681 | 12.22° C | 89% | 1016.1 hPa | 0 mm | - | 181 W/m² | - |
| 1777564938 | 12.22° C | 89% | 1016.2 hPa | 0 mm | - | 153 W/m² | - |
| 1777559538 | 12.22° C | 90% | 1015.8 hPa | 0 mm | - | 36 W/m² | - |
| 1777558843 | 11.67° C | 90% | 1015.9 hPa | 0 mm | - | 27 W/m² | - |
| 1777558100 | 12.22° C | 89% | 1015.8 hPa | 0 mm | - | 21 W/m² | - |
| 1777556297 | 12.22° C | 89% | 1015.6 hPa | 0 mm | - | 7 W/m² | - |
| 1777554524 | 12.22° C | 89% | 1015.7 hPa | 0 mm | - | 0 W/m² | - |
| 1777554144 | 12.22° C | 89% | 1015.7 hPa | 0 mm | - | 0 W/m² | - |
| 1777550897 | 12.22° C | 89% | 1015.8 hPa | 0 mm | - | 0 W/m² | - |
| 1777548060 | 12.22° C | 90% | 1015.8 hPa | 0 mm | - | 0 W/m² | - |
| 1777546937 | 12.22° C | 90% | 1015.9 hPa | 0 mm | - | 0 W/m² | - |
| 1777544430 | 12.22° C | 90% | 1016 hPa | 0 mm | - | 0 W/m² | - |
| 1777541177 | 12.22° C | 89% | 1016.4 hPa | 0 mm | - | 0 W/m² | - |
* Rain latest hour (hover to see other rain measurements)
** Current wind speed in m/s (hover to see current wind gust speed)